World > North America > United States > Washington

Fircrest, Washington Regional Weather

Lat: 47.23N, Lon: 122.51W
Wx Zone: WAZ509Web Search

Our weather pages are very print friendly and they make great conversation starters.

Feedback


°F Click to change Fircrest hourly weather to Imperial units.Click to change Fircrest hourly weather to Metric units. °C
Fircrest Weather Map
UTC Time: 4/10/2021, 11:47
Your Time:

Fircrest, WA Regional Weather

Expires:202104101200;;327949
ASUS46 KSEW 101120
RWRWA 

WASHINGTON REGIONAL WEATHER ROUNDUP
NATIONAL WEATHER SERVICE SEATTLE WA
400 AM PDT SAT APR 10 2021

NOTE:"FAIR" INDICATES FEW OR NO CLOUDS BELOW 12,000 FEET WITH NO 
SIGNIFICANT WEATHER AND/OR OBSTRUCTIONS TO VISIBILITY.


WAZ507-509-555>559-101200-
SEATTLE, TACOMA, EVERETT, AND VICINITY
  
CITY           SKY/WX    TMP DP  RH WIND       PRES   REMARKS
EVERETT        LGT RAIN  37  33  85 CALM      30.03R                  
BOEING FIELD   MOCLDY    42  32  67 SW13      30.03R                  
RENTON         CLOUDY    44  34  67 S10       30.03R                  
SEATAC AIRPORT MOCLDY    42  34  73 SW22G30   30.02R                  
JBLM-MCCHORD   CLOUDY    39  37  93 S8        30.07S                  
PUYALLUP       CLOUDY    39  37  93 SW7G15    30.07S                  
BREMERTON      MOCLDY    38  35  89 SW13      30.02S                  
JBLM-FT LEWIS  LGT RAIN  39  36  87 S9        30.08R                  
TACOMA NARROWS CLOUDY    40  33  76 SW12G20   30.06R                  
$$
 

SKY/WX - Weather  TMP - Temperature  DP - Dew Point  RH - Relative Humidity
WIND - Wind Direction/Speed PRES - Barometric Pressure VSB - Visibility
WCI - Wind Chill Index E13G22 Wind - East Wind 13 mph/Gusts of 22 mph